[[{"header":{"parameterUnit":"m.s-1","parameterCategory":1,"la1":30.2991,"la2":30.254,"lo1":-89.0895,"lo2":-89.0444,"dy":0.0017,"dx":0.0017,"nx":28,"ny":28,"refTime":"2026-02-24T09:00:00:Z","depth":0,"parameterNumber":2,"parameterNumberName":"U-component_of_WINDS"},"data":[0,0,0,0,0,0,0,0,0,0,0,0,0,0,0,0,0,0,0,0,0,0,0,0,0,0,0,0,0,0,0,0,0,0,0,0,0,0,0,0,0,0,0,0,0,0,0,0,0,0,0,0,0,0,0,0,0,0,-0.0952,-0.0952,0,-0.0983,-0.0983,-0.0984,-0.0946,-0.0945,-0.0944,-0.0942,-0.0978,-0.098,-0.0983,0,0,0,0,0,0,0,0,0,0,0,0,0,-0.0863,-0.0865,-0.0952,-0.0952,-0.0953,-0.0983,-0.0983,-0.0984,-0.0947,-0.0945,-0.0943,-0.0942,-0.0977,-0.098,-0.0983,0,0,0,0,0,0,0,0,0,0,0,0,0,-0.0899,-0.0865,-0.0952,-0.0938,-0.0937,-0.0983,-0.0983,-0.0984,-0.0947,-0.0945,-0.0943,-0.0941,-0.0977,-0.098,-0.0983,-0.1046,0,0,-0.0993,-0.0995,0,0,0,0,0,0,0,0,-0.0897,-0.0902,-0.0939,-0.0939,-0.0938,-0.0958,-0.0965,-0.1005,-0.0948,-0.0943,-0.0942,-0.094,-0.0974,-0.0977,-0.0988,-0.1048,-0.1049,-0.0994,-0.0996,-0.0997,-0.0998,0,0,0,0,0,0,0,-0.0894,-0.09,-0.0964,-0.094,-0.0939,-0.093,-0.0933,-0.0972,-0.097,-0.0943,-0.0941,-0.0945,-0.0973,-0.0984,-0.0988,-0.105,-0.0994,-0.0997,-0.0999,-0.1,-0.1162,-0.1164,0,0,0,0,0,0,-0.0893,-0.0898,-0.0963,-0.0965,-0.0911,-0.0934,-0.0937,-0.0954,-0.0969,-0.097,-0.0946,-0.0943,-0.098,-0.0984,-0.0989,-0.1064,-0.0997,-0.1,-0.1002,-0.1159,-0.1162,-0.1165,0,0,0,0,0,0,-0.0891,-0.0899,-0.0962,-0.0931,-0.0938,-0.0938,-0.0957,-0.0956,-0.0967,-0.0972,-0.0971,-0.0959,-0.0978,-0.0985,-0.1032,-0.1065,-0.1002,-0.1005,-0.1157,-0.116,-0.1163,-0.1214,0,0,0,0,0,0,-0.0889,-0.0898,-0.0922,-0.0932,-0.094,-0.1003,-0.0959,-0.0958,-0.0973,-0.0968,-0.0983,-0.0984,-0.0977,-0.1027,-0.1035,-0.1068,-0.1008,-0.1154,-0.1158,-0.1162,-0.1209,-0.1218,-0.1226,0,0,0,0,0,-0.0886,-0.0936,-0.0923,-0.0931,-0.0969,-0.1005,-0.101,-0.1001,-0.0976,-0.1,-0.1002,-0.0983,-0.1059,-0.1032,-0.1041,-0.1076,-0.1152,-0.1157,-0.1162,-0.1205,-0.1217,-0.1226,0,0,0,0,0,0,-0.0932,-0.0937,-0.0923,-0.0978,-0.0991,-0.0999,-0.1029,-0.1013,-0.1035,-0.103,-0.1018,-0.1022,-0.1072,-0.1078,-0.1048,-0.1137,-0.1101,-0.1109,-0.1131,-0.1142,-0.115,-0.1149,-0.101,0,0,0,0,0,-0.0948,-0.0976,-0.0979,-0.1027,-0.1034,-0.103,-0.1046,-0.1037,-0.1051,-0.1057,-0.1063,-0.1078,-0.1105,-0.1123,-0.1149,-0.1209,-0.1212,-0.1237,-0.1245,-0.1252,-0.126,-0.1292,-0.1303,-0.1181,-0.1181,-0.1181,0,0,-0.0983,-0.0989,-0.1008,-0.1037,-0.1046,-0.1076,-0.1036,-0.1069,-0.1092,-0.1062,-0.1107,-0.1112,-0.1128,-0.1181,-0.1205,-0.1188,-0.1293,-0.1259,-0.1264,-0.1268,-0.1298,-0.131,-0.132,-0.1185,-0.1184,-0.1184,0,0,-0.1062,-0.1069,-0.1109,-0.1119,-0.1132,-0.1129,-0.1139,-0.1148,-0.115,-0.1194,-0.1172,-0.1199,-0.1246,-0.1258,-0.127,-0.1351,-0.1335,-0.1359,-0.1405,-0.1437,-0.1446,-0.1455,-0.1484,-0.1495,-0.1366,-0.1366,-0.1366,0,-0.1104,-0.1147,-0.1133,-0.1167,-0.1181,-0.1153,-0.1195,-0.1205,-0.1227,-0.1237,-0.1217,-0.1274,-0.1283,-0.1339,-0.1359,-0.1369,-0.1381,-0.1359,-0.1446,-0.1454,-0.1462,-0.149,-0.1501,-0.1369,-0.1369,-0.1368,-0.1368,0,-0.1199,-0.1229,-0.126,-0.128,-0.1297,-0.1335,-0.1327,-0.1345,-0.1334,-0.1333,-0.1378,-0.1387,-0.1413,-0.1425,-0.1416,-0.148,-0.1469,-0.1447,-0.1412,-0.1477,-0.1503,-0.1514,-0.1373,-0.1372,-0.1371,-0.137,0,0,-0.1311,-0.132,-0.1332,-0.1341,-0.1352,-0.1376,-0.1412,-0.1436,-0.1453,-0.1468,-0.1499,-0.1538,-0.1517,-0.1531,-0.1522,-0.1549,-0.1613,-0.1524,-0.1524,-0.1542,-0.1685,-0.1703,-0.1716,-0.1601,-0.1603,-0.1605,-0.1684,0,-0.1391,-0.1453,-0.144,-0.1501,-0.1529,-0.1501,-0.1533,-0.1544,-0.1543,-0.1567,-0.1567,-0.1595,-0.1565,-0.1573,-0.1599,-0.16,-0.1642,-0.1594,-0.1631,-0.1633,-0.163,-0.1729,-0.1749,-0.1824,-0.1694,-0.1696,-0.1697,0,-0.1493,-0.151,-0.1574,-0.158,-0.1591,-0.162,-0.164,-0.1663,-0.1675,-0.1672,-0.1686,-0.1671,-0.1708,-0.167,-0.172,-0.1688,-0.1702,-0.1704,-0.1707,-0.1712,-0.1671,-0.1739,-0.1847,-0.1859,-0.1713,-0.1712,-0.1711,0,-0.157,-0.1609,-0.1652,-0.166,-0.1668,-0.1689,-0.1693,-0.1702,-0.1717,-0.1735,-0.1744,-0.1767,-0.1779,-0.1797,-0.1789,-0.1762,-0.1841,-0.1802,-0.1841,-0.1841,-0.1861,-0.186,-0.1975,-0.1867,-0.1867,-0.1866,-0.1866,0,-0.1662,-0.1702,-0.1687,-0.1714,-0.1758,-0.1742,-0.1786,-0.1787,-0.1795,-0.1822,-0.1799,-0.1825,-0.1812,-0.1836,-0.183,-0.1873,-0.1878,-0.1878,-0.1876,-0.1882,-0.1882,-0.1892,-0.1888,-0.1869,-0.1869,-0.1868,-0.1868,0,-0.1757,-0.1748,-0.1793,-0.1796,-0.1797,-0.183,-0.1832,-0.1858,-0.1853,-0.1888,-0.1895,-0.189,-0.1918,-0.191,-0.1941,-0.1936,-0.1991,-0.1981,-0.1987,-0.1985,-0.2025,-0.2022,-0.2152,-0.2169,-0.2048,-0.2049,-0.205,0,-0.1817,-0.1848,-0.1853,-0.1868,-0.1874,-0.1899,-0.1914,-0.1899,-0.1915,-0.1929,-0.1952,-0.1978,-0.1998,-0.2043,-0.2043,-0.2066,-0.2058,-0.2102,-0.2062,-0.2065,-0.206,-0.2059,-0.2063,-0.2111,-0.2112,-0.2113,-0.2114,0,-0.1926,-0.1919,-0.194,-0.1959,-0.1977,-0.1991,-0.2004,-0.2018,-0.2004,-0.2023,-0.205,-0.2065,-0.2095,-0.2121,-0.2142,-0.2147,-0.2129,-0.2126,-0.2137,-0.2144,-0.2146,-0.2146,-0.2011,-0.2124,-0.2123,-0.2122,-0.2122,-0.2122,-0.2007,-0.2032,-0.2039,-0.2063,-0.207,-0.2082,-0.2105,-0.2103,-0.2126,-0.2148,-0.2137,-0.2169,-0.2178,-0.2204,-0.2211,-0.2236,-0.222,-0.2235,-0.2239,-0.2243,-0.2249,-0.214,-0.224,-0.2239,-0.2239,-0.2239,-0.2239,0,-0.2115,-0.2118,-0.2139,-0.2157,-0.2176,-0.2154,-0.2166,-0.2184,-0.2212,-0.2221,-0.224,-0.2271,-0.2295,-0.2295,-0.2318,-0.2338,-0.233,-0.2345,-0.2344,-0.2346,-0.2262,-0.2251,-0.235,-0.235,-0.235,-0.235,-0.235,-0.235,-0.2174,-0.2216,-0.221,-0.2254,-0.2257,-0.2286,-0.2295,-0.2306,-0.2314,-0.2349,-0.2368,-0.2367,-0.2373,-0.2395,-0.2416,-0.2416,-0.2426,-0.2444,-0.244,-0.2363,-0.2352,-0.2341,-0.2331,-0.2446,-0.2446,-0.2523,-0.2523,-0.2524]},{"header":{"parameterUnit":"m.s-1","parameterCategory":1,"la1":30.2991,"la2":30.254,"lo1":-89.0895,"lo2":-89.0444,"dy":0.0017,"dx":0.0017,"nx":28,"ny":28,"refTime":"2026-02-24T09:00:00:Z","depth":0,"parameterNumber":3,"parameterNumberName":"V-component_of_WINDS"},"data":[0,0,0,0,0,0,0,0,0,0,0,0,0,0,0,0,0,0,0,0,0,0,0,0,0,0,0,0,0,0,0,0,0,0,0,0,0,0,0,0,0,0,0,0,0,0,0,0,0,0,0,0,0,0,0,0,0,0,-5.8075,-5.8077,0,-5.828,-5.8283,-5.8285,-5.8213,-5.8209,-5.8204,-5.82,-5.8407,-5.8417,-5.8427,0,0,0,0,0,0,0,0,0,0,0,0,0,-5.7618,-5.7626,-5.8075,-5.8077,-5.808,-5.828,-5.8283,-5.8285,-5.8214,-5.8209,-5.8203,-5.8198,-5.8404,-5.8416,-5.8427,0,0,0,0,0,0,0,0,0,0,0,0,0,-5.7819,-5.7629,-5.8074,-5.8069,-5.807,-5.8279,-5.8283,-5.8286,-5.8215,-5.8209,-5.8202,-5.8195,-5.84,-5.8415,-5.8429,-5.8655,0,0,-5.8474,-5.848,0,0,0,0,0,0,0,0,-5.7808,-5.7836,-5.8067,-5.8069,-5.8071,-5.8214,-5.8197,-5.841,-5.8217,-5.816,-5.82,-5.8192,-5.8349,-5.8367,-5.842,-5.8665,-5.8674,-5.8475,-5.8484,-5.849,-5.8494,0,0,0,0,0,0,0,-5.7794,-5.7826,-5.8156,-5.807,-5.8073,-5.8055,-5.8076,-5.8237,-5.829,-5.8165,-5.816,-5.8185,-5.8348,-5.8406,-5.8425,-5.8677,-5.8475,-5.8488,-5.8497,-5.8502,-5.9117,-5.9124,0,0,0,0,0,0,-5.7779,-5.7815,-5.8149,-5.8162,-5.792,-5.8068,-5.8092,-5.8175,-5.8288,-5.8299,-5.8191,-5.8181,-5.8385,-5.8408,-5.8432,-5.8703,-5.849,-5.8504,-5.8512,-5.9109,-5.9118,-5.9126,0,0,0,0,0,0,-5.7769,-5.781,-5.8141,-5.7988,-5.8028,-5.8084,-5.8178,-5.8183,-5.8241,-5.8308,-5.8316,-5.8241,-5.838,-5.8411,-5.86,-5.871,-5.851,-5.8524,-5.91,-5.9112,-5.9122,-5.9249,0,0,0,0,0,0,-5.7757,-5.7807,-5.7894,-5.799,-5.8037,-5.8308,-5.8184,-5.8192,-5.8267,-5.8256,-5.8357,-5.8367,-5.8377,-5.8579,-5.8615,-5.8726,-5.8535,-5.9091,-5.9105,-5.9119,-5.9235,-5.9263,-5.9287,0,0,0,0,0,-5.7741,-5.7921,-5.7899,-5.7939,-5.8148,-5.8314,-5.8341,-5.835,-5.8276,-5.8363,-5.8406,-5.8364,-5.8692,-5.8599,-5.8639,-5.8756,-5.9084,-5.9101,-5.9118,-5.9224,-5.9258,-5.9287,0,0,0,0,0,0,-5.7836,-5.7934,-5.791,-5.8127,-5.8213,-5.8302,-5.8413,-5.8386,-5.8494,-5.8479,-5.8484,-5.8508,-5.8702,-5.8748,-5.8643,-5.898,-5.8877,-5.8902,-5.8944,-5.8977,-5.9002,-5.8987,-5.8547,0,0,0,0,0,-5.7882,-5.801,-5.8088,-5.8272,-5.8317,-5.8358,-5.8431,-5.843,-5.8519,-5.8554,-5.8611,-5.8698,-5.882,-5.8901,-5.9017,-5.9242,-5.9262,-5.9342,-5.9368,-5.9389,-5.9411,-5.9532,-5.9568,-5.9182,-5.9182,-5.9182,0,0,-5.7979,-5.8048,-5.8128,-5.8293,-5.836,-5.8491,-5.8389,-5.8532,-5.8629,-5.8576,-5.8758,-5.8803,-5.89,-5.9108,-5.9202,-5.9152,-5.9522,-5.941,-5.9427,-5.9437,-5.9553,-5.9589,-5.9622,-5.9194,-5.9192,-5.919,0,0,-5.8222,-5.8288,-5.8448,-5.8517,-5.8619,-5.8645,-5.8684,-5.8777,-5.8805,-5.8988,-5.895,-5.9065,-5.9277,-5.9347,-5.9411,-5.9681,-5.9645,-5.9718,-5.9853,-5.9971,-6.0002,-6.0028,-6.0124,-6.0158,-5.974,-5.974,-5.9741,0,-5.8329,-5.8527,-5.8534,-5.8681,-5.8754,-5.8712,-5.8874,-5.894,-5.9074,-5.9125,-5.9067,-5.9331,-5.9394,-5.9617,-5.9682,-5.9736,-5.9779,-5.9706,-5.9997,-6.0024,-6.0049,-6.014,-6.0176,-5.9748,-5.9748,-5.9747,-5.9746,0,-5.8653,-5.8791,-5.8907,-5.9039,-5.9126,-5.9279,-5.9308,-5.9394,-5.9386,-5.9418,-5.9604,-5.9678,-5.9808,-5.9861,-5.9854,-6.0083,-6.0049,-5.9994,-5.989,-6.0094,-6.0179,-6.0214,-5.976,-5.9757,-5.9755,-5.9753,0,0,-5.8962,-5.9096,-5.9138,-5.9197,-5.9307,-5.9413,-5.9564,-5.9692,-5.9765,-5.986,-5.9986,-6.0165,-6.0115,-6.0187,-6.0188,-6.0292,-6.0499,-6.0224,-6.0226,-6.0272,-6.0755,-6.0795,-6.0835,-6.0477,-6.0484,-6.0489,-6.0746,0,-5.9214,-5.948,-5.949,-5.9733,-5.9859,-5.9821,-5.9953,-6.0033,-6.0067,-6.0178,-6.0215,-6.0342,-6.0267,-6.031,-6.0411,-6.0453,-6.0596,-6.0434,-6.0593,-6.0599,-6.0569,-6.088,-6.0923,-6.1163,-6.078,-6.0786,-6.079,0,-5.9543,-5.9648,-5.9904,-5.9994,-6.0048,-6.0166,-6.0284,-6.0391,-6.0481,-6.0498,-6.0579,-6.0565,-6.0718,-6.0609,-6.0819,-6.0709,-6.0774,-6.0805,-6.0814,-6.0829,-6.0706,-6.0902,-6.124,-6.1275,-6.0843,-6.0839,-6.0835,0,-5.9742,-5.9947,-6.0126,-6.0178,-6.0289,-6.0372,-6.0422,-6.0506,-6.0582,-6.0685,-6.0734,-6.0853,-6.0918,-6.101,-6.1027,-6.0947,-6.1238,-6.1131,-6.1255,-6.1255,-6.1318,-6.1314,-6.167,-6.1362,-6.1361,-6.136,-6.136,0,-6.0022,-6.0179,-6.0217,-6.0328,-6.0502,-6.0512,-6.0685,-6.0728,-6.0803,-6.092,-6.0894,-6.1004,-6.1021,-6.1135,-6.1149,-6.1321,-6.135,-6.1367,-6.1369,-6.137,-6.1368,-6.1412,-6.1396,-6.137,-6.1368,-6.1366,-6.1364,0,-6.0274,-6.0305,-6.0498,-6.0587,-6.0613,-6.0738,-6.0813,-6.0918,-6.0948,-6.1097,-6.1132,-6.118,-6.1312,-6.1339,-6.1496,-6.1506,-6.171,-6.1695,-6.168,-6.1678,-6.1801,-6.1789,-6.2198,-6.2251,-6.1908,-6.1912,-6.1914,0,-6.045,-6.057,-6.0672,-6.0749,-6.0803,-6.0927,-6.1005,-6.1018,-6.11,-6.1212,-6.1303,-6.1433,-6.1538,-6.1751,-6.1799,-6.1919,-6.1906,-6.2041,-6.1924,-6.192,-6.1908,-6.19,-6.1912,-6.2064,-6.2067,-6.207,-6.2073,0,-6.0759,-6.0769,-6.0882,-6.1002,-6.1095,-6.1189,-6.1279,-6.1343,-6.1369,-6.1462,-6.1597,-6.1679,-6.1839,-6.1968,-6.2087,-6.2137,-6.211,-6.2109,-6.2144,-6.2146,-6.2132,-6.214,-6.174,-6.21,-6.2097,-6.2095,-6.2094,-6.2093,-6.0978,-6.1083,-6.1171,-6.1298,-6.1367,-6.1451,-6.1554,-6.1597,-6.1711,-6.1843,-6.1844,-6.1992,-6.2078,-6.2235,-6.2293,-6.2408,-6.2365,-6.2416,-6.2429,-6.2441,-6.2452,-6.2114,-6.243,-6.2429,-6.2428,-6.2428,-6.2427,0,-6.1285,-6.134,-6.1457,-6.1583,-6.1683,-6.1649,-6.1746,-6.1831,-6.1962,-6.2045,-6.2149,-6.2304,-6.2429,-6.2487,-6.261,-6.2691,-6.2681,-6.2723,-6.2716,-6.2728,-6.2484,-6.2441,-6.2728,-6.2728,-6.2728,-6.2728,-6.2728,-6.2728,-6.1457,-6.1632,-6.1652,-6.1861,-6.1914,-6.206,-6.2118,-6.2195,-6.2261,-6.2436,-6.254,-6.2577,-6.265,-6.2778,-6.2891,-6.2904,-6.295,-6.2998,-6.3005,-6.2776,-6.2745,-6.2716,-6.2676,-6.3008,-6.3008,-6.324,-6.3242,-6.3244]}]]